This is the latest recevied weather packets stored in our database for station/object K8RRT. If no packets are shown the sender has not sent any weather packets the latest 10 day(s).
| Time | Temp. | Humidity | Pressure | Rain* | Wind** | Luminosity | Snow |
|---|---|---|---|---|---|---|---|
| 1777207630 | 12.22° C | 87% | 1013 hPa | 0 mm | - | 109 W/m² | - |
| 1777207326 | 12.22° C | 87% | 1013 hPa | 0 mm | - | 125 W/m² | - |
| 1777207020 | 12.22° C | 87% | 1013.2 hPa | 0 mm | - | 123 W/m² | - |
| 1777206717 | 12.22° C | 87% | 1013.1 hPa | 0 mm | - | 143 W/m² | - |
| 1777206411 | 12.22° C | 87% | 1013.1 hPa | 0 mm | - | 115 W/m² | - |
| 1777206106 | 12.22° C | 87% | 1013 hPa | 0 mm | - | 163 W/m² | - |
| 1777205803 | 12.22° C | 87% | 1013.1 hPa | 0 mm | - | 176 W/m² | - |
| 1777205500 | 12.22° C | 88% | 1013 hPa | 0 mm | - | 127 W/m² | - |
| 1777205196 | 11.67° C | 89% | 1012.9 hPa | 0 mm | - | 129 W/m² | - |
| 1777204892 | 11.67° C | 89% | 1012.8 hPa | 0 mm | - | 111 W/m² | - |
| 1777204587 | 11.67° C | 90% | 1012.9 hPa | 0 mm | - | 56 W/m² | - |
| 1777204283 | 11.67° C | 92% | 1012.7 hPa | 0 mm | - | 69 W/m² | - |
| 1777203979 | 11.67° C | 94% | 1012.5 hPa | 0 mm | - | 59 W/m² | - |
| 1777203674 | 11.11° C | 95% | 1012.6 hPa | 0 mm | - | 53 W/m² | - |
| 1777203370 | 10.56° C | 96% | 1012.5 hPa | 0 mm | - | 46 W/m² | - |
| 1777203067 | 10° C | 97% | 1012.5 hPa | 0 mm | - | 40 W/m² | - |
| 1777202763 | 10° C | 97% | 1012.3 hPa | 0 mm | - | 36 W/m² | - |
| 1777202462 | 9.44° C | 97% | 1012.2 hPa | 0 mm | - | 32 W/m² | - |
| 1777202156 | 10° C | 96% | 1012 hPa | 0 mm | - | 29 W/m² | - |
| 1777201853 | 9.44° C | 96% | 1011.7 hPa | 0 mm | - | 23 W/m² | - |
| 1777201550 | 9.44° C | 96% | 1011.7 hPa | 0 mm | - | 19 W/m² | - |
| 1777201245 | 8.89° C | 96% | 1011.7 hPa | 0 mm | - | 15 W/m² | - |
| 1777200940 | 8.89° C | 96% | 1011.8 hPa | 0 mm | - | 10 W/m² | - |
| 1777200638 | 9.44° C | 95% | 1011.7 hPa | 0 mm | - | 7 W/m² | - |
| 1777200337 | 9.44° C | 95% | 1011.5 hPa | 0 mm | - | 3 W/m² | - |
* Rain latest hour (hover to see other rain measurements)
** Current wind speed in m/s (hover to see current wind gust speed)